Unicom:                    122.8

AWOS:                  118.275

Elevation           1458’ MSL

TPA:                   2500’ MSL

06/24:         5003’ L   75’ W

PAPI:       06/Left     24/Left

(Operate lights on unicom freq.)

Traffic Pattern: Left

Beacon: Sunset to Sunrise

Windsock: yes, lighted

Segmented Circle: No

 

Cleveland Center: 126.72/291.65

FSS: Altoona

[Source: ADDS]
METAR
KFKL 271156Z AUTO 25008KT 10SM OVC006 09/09 A2985 RMK AO2 SLP111 60000 70002 T00890089 10094 20089 53013 =
KFKL 271120Z 2712/2812 24007KT P6SM OVC006 FM271400 25010KT P6SM VCSH BKN010 FM271600 26010G20KT P6SM -SHRA OVC020 FM271900 27009G19KT P6SM -SHRA SCT025 BKN035 TEMPO 2719/2723 5SM -SHRA BKN025 FM280500 24005KT P6SM BKN020 FM281000 27004KT P6SM -SHRA OVC006
TAF
KFKL 271120Z 2712/2812 24007KT P6SM OVC006 FM271400 25010KT P6SM VCSH BKN010 FM271600 26010G20KT P6SM -SHRA OVC020 FM271900 27009G19KT P6SM -SHRA SCT025 BKN035 TEMPO 2719/2723 5SM -SHRA BKN025 FM280500 24005KT P6SM BKN020 FM281000 27004KT P6SM -SHRA OVC006 =
[Source: ADDS]
METAR
KDUJ 271153Z AUTO 23010KT 10SM OVC008 09/07 A2983 RMK AO2 SLP104 70018 T00940072 10100 20094 53011 =
KDUJ 271120Z 2712/2812 25010KT P6SM OVC009 FM271500 25010G20KT P6SM BKN020 FM271900 26010G20KT P6SM -SHRA SCT020 BKN035 TEMPO 2719/2723 5SM -SHRA BKN025 FM280000 26008KT P6SM BKN035 FM280800 25006KT P6SM OVC008
TAF
KDUJ 271120Z 2712/2812 25010KT P6SM OVC009 FM271500 25010G20KT P6SM BKN020 FM271900 26010G20KT P6SM -SHRA SCT020 BKN035 TEMPO 2719/2723 5SM -SHRA BKN025 FM280000 26008KT P6SM BKN035 FM280800 25006KT P6SM OVC008 =

About Us.

            

Clarion County Airport Authority

Overview -The Clarion County Airport Authority is a municipal authority created in 1967, under the Municipal Authorities Act of 1945.  The original purpose of the Authority was to site and construct a facility to replace Rhea Airport, a small grass airport at the US 322, PA 66 intersection, which was closed due to planned highway construction.

    The Airport Authority completed construction of the Clarion County Airport in 1975, and is responsible for overall operation of the airport.   The day to day responsibilities of airport operations are delegated to the Airport Manager, who is one of two employees of the Authority. 

 

    The Clarion County Airport supports the needs of business and recreational flyers in the area.  It’s close proximity to both Cook Forest State Park and the Allegheny National Forest affords the Airport the opportunity to provide airport users access to numerous hunting, fishing, golfing and camping activities.  In doing so, the Airport supports many of the region’s primary economic activities.


     Mission Statement  – The mission of the Clarion County Airport Authority is to provide the citizens of Clarion County and surrounding areas with safe and efficient access to the National Air Transportation System by providing and operating a general aviation business service airport.   The administration of the airport will be done in a manner that emphasizes safety and economic development for the Clarion County area, while utilizing resources in a way that will result in the most efficient use of public funds, and resulting in the least possible expense to the County taxpayers.

 

2018 Authority Officers

      Dr. Norm Wagner      President                                                                                                                                                         

      Dave Cyphert             Vice President

      Andrew Kirby             Secretary

      David Cox                   Treasurer